CW3518 Weather Reports


Display with metric or nautical units.
time (UTC)temp
F
wind
direction
speed
MPH
gust
MPH
rain 1hr
in
rain 24hr
in
rain mn
in
humidity
%
barometer
mb
20260904232505 97 138 15.0 16.0 0.00 0.03 0.03 40 1011.1
20260904232006 97 168 9.0 16.0 0.00 0.03 0.03 40 1011.1
20260904231505 97 156 13.0 15.0 0.00 0.03 0.03 40 1011.1
20260904231005 97 171 7.0 12.0 0.00 0.03 0.03 40 1011.2
20260904230505 97 142 8.0 15.0 0.00 0.03 0.03 40 1011.2
20260904230005 96 172 8.0 20.0 0.00 0.03 0.03 40 1011.2
20260904225505 97 161 11.0 20.0 0.00 0.03 0.03 40 1011.2
20260904225005 97 111 13.0 18.0 0.00 0.03 0.03 40 1011.2
20260904224505 97 168 8.0 18.0 0.00 0.03 0.03 40 1011.3
20260904224005 97 144 7.0 13.0 0.00 0.03 0.03 40 1011.3
20260904223505 96 121 13.0 13.0 0.00 0.03 0.03 40 1011.3
20260904223035 97 150 10.0 15.0 0.00 0.03 0.03 39 1011.4
20260904222505 97 159 15.0 19.0 0.00 0.03 0.03 39 1011.4
20260904222006 97 138 14.0 19.0 0.00 0.03 0.03 39 1011.4
20260904221006 97 205 16.0 17.0 0.00 0.03 0.03 40 1011.4
20260904220505 97 183 13.0 15.0 0.00 0.03 0.03 40 1011.4
20260904220005 97 197 8.0 15.0 0.00 0.03 0.03 41 1011.5
20260904215505 97 190 11.0 15.0 0.00 0.03 0.03 41 1011.5
20260904215005 97 143 9.0 16.0 0.00 0.03 0.03 41 1011.5
20260904214504 97 176 5.0 18.0 0.00 0.03 0.03 42 1011.6
20260904214005 96 141 12.0 18.0 0.00 0.03 0.03 42 1011.5
20260904213504 96 123 13.0 16.0 0.00 0.03 0.03 42 1011.6
20260904213004 96 153 6.0 19.0 0.00 0.03 0.03 43 1011.8
20260904212504 96 165 17.0 19.0 0.00 0.03 0.03 42 1011.7
20260904212004 97 211 10.0 17.0 0.00 0.03 0.03 42 1011.8
20260904211004 96 201 15.0 17.0 0.00 0.03 0.03 42 1011.9
20260904210504 96 170 8.0 16.0 0.00 0.03 0.03 41 1012.0
20260904205504 96 164 13.0 15.0 0.00 0.03 0.03 40 1012.2
20260904204504 96 145 14.0 16.0 0.00 0.03 0.03 40 1012.3
20260904203504 96 165 9.0 15.0 0.00 0.03 0.03 40 1012.4
20260904203004 96 147 8.0 16.0 0.00 0.03 0.03 41 1012.4
20260904202504 96 178 12.0 16.0 0.00 0.03 0.03 42 1012.5
20260904202004 96 169 15.0 18.0 0.00 0.03 0.03 41 1012.5
20260904201504 96 134 15.0 18.0 0.00 0.03 0.03 41 1012.6
20260904201004 96 165 12.0 18.0 0.00 0.03 0.03 42 1012.6
20260904200504 96 168 8.0 16.0 0.00 0.03 0.03 43 1012.8
20260904195004 95 168 12.0 17.0 0.00 0.03 0.03 43 1012.9
20260904194003 96 168 11.0 16.0 0.00 0.03 0.03 43 1013.0
20260904193503 95 216 9.0 19.0 0.00 0.03 0.03 45 1013.1
20260904193003 95 175 8.0 19.0 0.00 0.03 0.03 44 1013.1
20260904192503 94 206 13.0 19.0 0.00 0.03 0.03 44 1013.1
20260904192003 94 215 12.0 20.0 0.00 0.03 0.03 44 1013.2
20260904191503 94 201 9.0 20.0 0.00 0.03 0.03 43 1013.2
20260904191003 95 209 19.0 19.0 0.00 0.03 0.03 42 1013.3
20260904190503 94 132 18.0 21.0 0.00 0.03 0.03 42 1013.4
20260904190003 93 194 7.0 21.0 0.00 0.03 0.03 44 1013.5
20260904184503 94 150 13.0 20.0 0.00 0.03 0.03 45 1013.6
20260904184002 93 155 19.0 20.0 0.00 0.03 0.03 45 1013.6
20260904182503 93 145 17.0 18.0 0.00 0.03 0.03 41 1013.9
20260904182002 92 198 10.0 18.0 0.00 0.03 0.03 41 1014.1
20260904181502 92 223 16.0 19.0 0.00 0.03 0.03 42 1014.1
20260904181002 91 201 16.0 19.0 0.00 0.03 0.03 42 1014.2
20260904180502 91 197 14.0 19.0 0.00 0.03 0.03 42 1014.2
20260904175502 91 211 13.0 19.0 0.00 0.03 0.03 47 1014.3
20260904175002 91 168 13.0 19.0 0.00 0.03 0.03 45 1014.3
20260904174532 92 188 13.0 19.0 0.00 0.03 0.03 44 1014.3
20260904174003 91 161 12.0 16.0 0.00 0.03 0.03 50 1014.3
20260904173502 91 201 14.0 17.0 0.00 0.03 0.03 51 1014.4
20260904173002 91 163 14.0 17.0 0.00 0.03 0.03 50 1014.5
20260904172002 89 191 7.0 16.0 0.00 0.03 0.03 56 1014.8
20260904171502 89 203 12.0 17.0 0.00 0.03 0.03 57 1014.7
20260904171001 88 223 16.0 17.0 0.00 0.03 0.03 57 1014.8
20260904165501 88 175 11.0 14.0 0.00 0.03 0.03 55 1014.9
20260904165001 88 213 13.0 15.0 0.00 0.03 0.03 55 1015.0
20260904164502 87 185 8.0 18.0 0.00 0.03 0.03 56 1015.1
20260904164002 87 215 16.0 18.0 0.00 0.03 0.03 55 1015.1
20260904163502 86 204 12.0 15.0 0.00 0.03 0.03 57 1015.1
20260904162501 86 204 13.0 17.0 0.00 0.03 0.03 58 1015.1
20260904162001 86 215 12.0 17.0 0.00 0.03 0.03 62 1015.1
20260904161001 85 195 12.0 14.0 0.00 0.03 0.03 66 1015.2
20260904160001 84 209 13.0 14.0 0.01 0.03 0.03 66 1015.2
20260904155501 84 202 11.0 14.0 0.01 0.03 0.03 67 1015.2
20260904155001 84 217 8.0 14.0 0.01 0.03 0.03 68 1015.1
20260904154501 84 198 11.0 14.0 0.02 0.03 0.03 68 1015.2
20260904154001 84 196 12.0 14.0 0.03 0.03 0.03 69 1015.1
20260904153001 84 158 7.0 13.0 0.03 0.03 0.03 71 1015.1
20260904152501 84 194 10.0 13.0 0.03 0.03 0.03 71 1015.1
20260904152001 84 192 9.0 18.0 0.03 0.03 0.03 71 1015.0
20260904151501 83 195 14.0 18.0 0.03 0.03 0.03 69 1015.0
20260904145501 81 170 8.0 12.0 0.02 0.02 0.02 81 1015.0
20260904144501 82 210 6.0 9.0 0.01 0.01 0.01 80 1015.0
20260904143500 82 184 6.0 11.0 0.00 0.00 0.00 80 1014.9
20260904143000 82 195 9.0 12.0 0.00 0.00 0.00 78 1014.9
20260904142530 82 178 10.0 12.0 0.00 0.00 0.00 80 1014.8
20260904142000 81 177 8.0 12.0 0.00 0.00 0.00 82 1014.9
20260904141500 81 160 8.0 12.0 0.00 0.00 0.00 83 1014.8
20260904141001 80 163 7.0 12.0 0.00 0.00 0.00 84 1014.8
20260904140500 80 144 9.0 12.0 0.00 0.00 0.00 85 1014.8
20260904140000 80 169 10.0 13.0 0.00 0.00 0.00 85 1014.8
20260904135500 80 0 0.0 13.0 0.00 0.00 0.00 86 1014.8
20260904135000 80 131 10.0 12.0 0.00 0.00 0.00 87 1014.7
20260904134502 80 147 8.0 13.0 0.00 0.00 0.00 88 1014.7
20260904134000 79 0 0.0 13.0 0.00 0.00 0.00 88 1014.6
20260904133501 79 0 0.0 13.0 0.00 0.00 0.00 88 1014.6
20260904132001 79 156 5.0 11.0 0.00 0.00 0.00 89 1014.4
20260904131500 79 146 9.0 10.0 0.00 0.00 0.00 89 1014.4
20260904130501 79 137 6.0 10.0 0.00 0.00 0.00 89 1014.4
20260904125459 78 145 7.0 9.0 0.00 0.00 0.00 89 1014.3
20260904124959 78 146 7.0 11.0 0.00 0.00 0.00 89 1014.2
20260904123959 78 157 9.0 10.0 0.00 0.00 0.00 89 1014.1
20260904123459 78 167 6.0 11.0 0.00 0.00 0.00 89 1014.1
20260904122959 78 138 7.0 11.0 0.00 0.00 0.00 89 1014.1
20260904122459 78 116 6.0 10.0 0.00 0.00 0.00 89 1014.1
20260904121959 78 132 7.0 9.0 0.00 0.00 0.00 89 1014.0
20260904120959 78 142 8.0 8.0 0.00 0.00 0.00 90 1013.9
20260904120459 78 143 7.0 10.0 0.00 0.00 0.00 90 1013.7
20260904115959 78 149 7.0 10.0 0.00 0.00 0.00 90 1013.7
20260904115459 78 146 8.0 10.0 0.00 0.00 0.00 90 1013.6
20260904114959 78 127 7.0 9.0 0.00 0.00 0.00 90 1013.7
20260904114529 78 136 8.0 9.0 0.00 0.00 0.00 90 1013.7
20260904113959 78 131 7.0 9.0 0.00 0.00 0.00 89 1013.7
20260904113529 78 123 9.0 9.0 0.00 0.00 0.00 89 1013.7
20260904113029 78 125 7.0 8.0 0.00 0.00 0.00 88 1013.7
20260904111959 78 138 6.0 9.0 0.00 0.00 0.00 88 1013.5
20260904111459 78 156 8.0 9.0 0.00 0.00 0.00 88 1013.5
20260904110959 79 149 8.0 10.0 0.00 0.00 0.00 87 1013.5
20260904110458 79 145 7.0 10.0 0.00 0.00 0.00 87 1013.6
20260904105958 79 145 7.0 11.0 0.00 0.00 0.00 87 1013.6
20260904105459 79 139 10.0 11.0 0.00 0.00 0.00 87 1013.7
20260904104958 79 134 8.0 11.0 0.00 0.00 0.00 86 1013.7
20260904104458 79 145 11.0 11.0 0.00 0.00 0.00 86 1013.6
20260904103458 79 160 7.0 11.0 0.00 0.00 0.00 86 1013.5
20260904102959 79 153 8.0 11.0 0.00 0.00 0.00 86 1013.4
20260904102459 79 162 10.0 11.0 0.00 0.00 0.00 86 1013.4
20260904101958 79 150 8.0 11.0 0.00 0.00 0.00 86 1013.4
20260904101459 79 160 10.0 11.0 0.00 0.00 0.00 86 1013.4
20260904100958 79 156 7.0 11.0 0.00 0.00 0.00 86 1013.4
20260904100458 79 159 9.0 11.0 0.00 0.00 0.00 85 1013.4
20260904100028 79 154 8.0 10.0 0.00 0.00 0.00 85 1013.4
20260904095459 79 148 7.0 11.0 0.00 0.00 0.00 85 1013.5
20260904094958 79 152 7.0 11.0 0.00 0.00 0.00 85 1013.4
20260904093958 79 131 7.0 12.0 0.00 0.00 0.00 84 1013.4
20260904093529 79 131 7.0 9.0 0.00 0.00 0.00 84 1013.4
20260904092958 80 131 8.0 11.0 0.00 0.00 0.00 83 1013.3
20260904092458 80 156 6.0 11.0 0.00 0.00 0.00 83 1013.3
20260904091958 80 192 7.0 11.0 0.00 0.00 0.00 83 1013.2
20260904091458 80 170 5.0 11.0 0.00 0.00 0.00 83 1013.2
20260904090958 80 163 9.0 12.0 0.00 0.00 0.00 83 1013.2
20260904090458 80 172 10.0 12.0 0.00 0.00 0.00 83 1013.2
20260904085958 80 158 5.0 11.0 0.00 0.00 0.00 83 1013.2
20260904085458 80 158 8.0 12.0 0.00 0.00 0.00 83 1013.2
20260904084958 80 165 7.0 12.0 0.00 0.00 0.00 82 1013.2
20260904084458 79 177 8.0 11.0 0.00 0.00 0.00 82 1013.2
20260904083957 80 187 6.0 11.0 0.00 0.00 0.00 82 1013.2
20260904082957 80 144 7.0 11.0 0.00 0.00 0.00 81 1013.2
20260904082457 80 151 7.0 11.0 0.00 0.00 0.00 81 1013.2
20260904081958 80 149 7.0 10.0 0.00 0.00 0.00 81 1013.2
20260904081457 80 158 8.0 10.0 0.00 0.00 0.00 81 1013.2
20260904080958 80 156 5.0 10.0 0.00 0.00 0.00 81 1013.2
20260904080457 80 160 7.0 10.0 0.00 0.00 0.00 80 1013.2
20260904080027 80 166 8.0 10.0 0.00 0.00 0.00 80 1013.2
20260904075528 80 165 7.0 9.0 0.00 0.00 0.00 80 1013.2
20260904075027 80 178 6.0 10.0 0.00 0.00 0.00 80 1013.2
20260904074528 80 197 6.0 10.0 0.00 0.00 0.00 80 1013.2
20260904073957 80 141 5.0 9.0 0.00 0.00 0.00 79 1013.2
20260904073458 80 150 6.0 9.0 0.00 0.00 0.00 79 1013.2
20260904072958 80 135 4.0 10.0 0.00 0.00 0.00 79 1013.3
20260904071957 80 178 5.0 12.0 0.00 0.00 0.00 79 1013.4
20260904071457 80 166 11.0 12.0 0.00 0.00 0.00 79 1013.4
20260904070957 79 172 9.0 11.0 0.00 0.00 0.00 78 1013.4
20260904070027 79 145 7.0 10.0 0.00 0.00 0.00 76 1013.5
20260904065457 79 149 8.0 9.0 0.00 0.00 0.00 76 1013.5
20260904064957 79 149 8.0 12.0 0.00 0.00 0.00 75 1013.5
20260904064457 79 151 9.0 12.0 0.00 0.00 0.00 75 1013.5
20260904062957 79 149 9.0 12.0 0.00 0.00 0.00 74 1013.5
20260904062527 79 154 10.0 11.0 0.00 0.00 0.00 74 1013.5
20260904062026 79 140 9.0 10.0 0.00 0.00 0.00 74 1013.5
20260904061526 79 139 9.0 10.0 0.00 0.00 0.00 74 1013.5
20260904060526 80 154 8.0 9.0 0.00 0.00 0.00 74 1013.5
20260904060026 80 125 7.0 9.0 0.00 0.00 0.00 74 1013.5
20260904055526 80 151 8.0 9.0 0.00 0.00 0.00 74 1013.6
20260904054956 80 128 6.0 11.0 0.00 0.00 0.00 74 1013.6
20260904054457 80 145 7.0 11.0 0.00 0.00 0.00 73 1013.6
20260904053956 80 154 9.0 11.0 0.00 0.00 0.00 73 1013.5
20260904053456 80 154 10.0 11.0 0.00 0.00 0.00 73 1013.5
20260904052957 80 141 11.0 12.0 0.00 0.00 0.00 73 1013.6
20260904052456 80 144 8.0 12.0 0.00 0.00 0.00 73 1013.6
20260904051956 80 146 9.0 11.0 0.00 0.00 0.00 73 1013.6
20260904051456 80 161 9.0 12.0 0.00 0.00 0.00 73 1013.6
20260904050956 80 145 11.0 12.0 0.00 0.00 0.00 73 1013.4
20260904050456 80 129 12.0 12.0 0.00 0.00 0.00 73 1013.4
20260904050029 80 133 9.0 12.0 0.00 0.00 0.00 73 1013.4
20260904045458 80 137 7.0 12.0 0.00 0.00 0.00 72 1013.4
20260904044955 80 127 10.0 13.0 0.00 0.00 0.00 72 1013.4
20260904044456 81 131 9.0 13.0 0.00 0.00 0.00 72 1013.3
20260904043527 81 0 0.0 15.0 0.00 0.00 0.00 70 1013.2
20260904043025 81 137 11.0 14.0 0.00 0.00 0.00 70 1013.2
20260904042456 81 0 0.0 13.0 0.00 0.00 0.00 70 1013.2
20260904041955 81 142 11.0 13.0 0.00 0.00 0.00 70 1013.2
20260904041455 82 139 10.0 13.0 0.00 0.00 0.00 69 1013.2
20260904040525 82 0 0.0 13.0 0.00 0.00 0.00 70 1013.2
20260904040025 82 141 9.0 11.0 0.00 0.00 0.00 71 1013.3
20260904035525 82 134 9.0 15.0 0.00 0.00 0.00 72 1013.4
20260904035025 82 136 10.0 15.0 0.00 0.00 0.00 72 1013.4
20260904034526 82 142 12.0 13.0 0.00 0.00 0.00 72 1013.3
20260904034024 82 137 11.0 12.0 0.00 0.00 0.00 73 1013.4
20260904033025 82 156 9.0 13.0 0.00 0.00 0.00 73 1013.3
20260904032524 82 156 12.0 13.0 0.00 0.00 0.00 72 1013.3
20260904031025 83 0 0.0 13.0 0.00 0.00 0.00 72 1013.2
20260904030526 83 0 0.0 12.0 0.00 0.00 0.00 72 1013.2
20260904030024 83 0 0.0 0.0 0.00 0.00 0.00 71 1013.2
20260904025524 83 0 0.0 0.0 0.00 0.00 0.00 71 1013.1
20260904025024 84 0 0.0 13.0 0.00 0.00 0.00 70 1013.0
20260904024456 84 0 0.0 16.0 0.00 0.00 0.00 69 1012.9
20260904024024 84 0 0.0 16.0 0.00 0.00 0.00 66 1013.0
20260904022955 85 0 0.0 16.0 0.00 0.00 0.00 65 1012.7
20260904022456 85 119 14.0 16.0 0.00 0.00 0.00 64 1012.6
20260904022024 85 123 12.0 15.0 0.00 0.00 0.00 64 1012.6
20260904021526 85 0 0.0 15.0 0.00 0.00 0.00 64 1012.5
20260904020524 85 120 15.0 16.0 0.00 0.00 0.00 64 1012.2
20260904020025 86 0 0.0 15.0 0.00 0.00 0.00 64 1012.1
20260904014524 86 121 15.0 16.0 0.00 0.00 0.00 64 1011.8
20260904014023 86 132 12.0 16.0 0.00 0.00 0.00 64 1011.8
20260904013525 86 119 14.0 17.0 0.00 0.00 0.00 64 1011.7
20260904012026 87 121 15.0 18.0 0.00 0.00 0.00 63 1011.5
20260904011023 87 0 0.0 18.0 0.00 0.00 0.00 63 1011.4
20260904010454 87 0 0.0 19.0 0.00 0.00 0.00 63 1011.5
20260904005953 87 123 14.0 19.0 0.00 0.00 0.00 62 1011.4
20260904005525 87 0 0.0 19.0 0.00 0.00 0.00 62 1011.3
20260904004955 87 139 11.0 16.0 0.00 0.00 0.00 62 1011.3
20260904004454 88 152 10.0 16.0 0.00 0.00 0.00 62 1011.4
20260904004025 88 141 11.0 16.0 0.00 0.00 0.00 62 1011.3
20260904003523 88 132 13.0 16.0 0.00 0.00 0.00 62 1011.3
20260904002953 88 137 14.0 16.0 0.00 0.00 0.00 61 1011.3
20260904002023 89 132 10.0 21.0 0.00 0.00 0.00 61 1011.2
20260904000523 89 130 9.0 17.0 0.00 0.00 0.00 61 1011.1
20260904000023 89 118 11.0 17.0 0.00 0.00 0.00 61 1011.1
20260903235523 89 131 7.0 18.0 0.00 0.00 0.00 62 1011.1
20260903235023 89 100 12.0 18.0 0.00 0.00 0.00 61 1011.1
20260903234524 89 116 14.0 15.0 0.00 0.00 0.00 61 1011.1
20260903233523 89 125 9.0 10.0 0.00 0.00 0.00 59 1011.2
20260903233024 89 153 7.0 15.0 0.00 0.00 0.00 60 1011.2